Sturgis, MI

6:45 AM EDT on March 26, 2017 (GMT -0400)
Kirsch Municipal

Weather History for KIRS - March, 2013

Change the Weather History Date:

Tuesday, March 5, 2013

  Actual Average (KHAI) Record (KHAI)
Temperature  
Mean Temperature 28 °F -  
Max Temperature 30 °F 43 °F 75 °F (1983)
Min Temperature 24 °F 24 °F 0 °F (1978)
Degree Days  
Heating Degree Days 37    
Moisture  
Dew Point 21 °F    
Average Humidity 76    
Maximum Humidity 100    
Minimum Humidity 59    
Precipitation  
Precipitation 0.00 in - - ()
Sea Level Pressure  
Sea Level Pressure 29.87 in    
Wind  
Wind Speed 11 mph (East)    
Max Wind Speed 20 mph    
Max Gust Speed 26 mph    
Visibility 7 miles    
Events Snow    
Averages and records for this station are not official NWS values.
T = Trace of Precipitation, MM = Missing Value Source: NWS Daily Summary

Daily Weather History Graph

Daily Weather History Graph

Search for Another Location

Airport or City:

Trip Planner

Search our weather history database for the weather conditions in past years. The results will help you decide how hot, cold, wet, or windy it might be!

Date:

Astronomy

Mar. 05, 2013 Rise Set
Actual Time 7:09 AM EST 6:37 PM EST
Civil Twilight 6:42 AM EST 7:04 PM EST
Nautical Twilight 6:09 AM EST 7:37 PM EST
Astronomical Twilight 5:37 AM EST 8:09 PM EST
Moon 2:25 AM EST (3/5) 12:11 PM EST (3/5)
Length of Visible Light 12h 22m
Length of Day
11h 27m
Last Quarter, 41% of the Moon is Illuminated
Mar 5
Last Quarter
Mar 11
New
Mar 19
First Quarter
Mar 27
Full
Apr 3
Last Quarter

Hourly Weather History & Observations

Time (EST) Temp. Windchill Dew Point Humidity Pressure Visibility Wind Dir Wind Speed Gust Speed Precip Events Conditions
12:15 AM 28.4 °F 23.3 °F 17.6 °F 64% 30.06 in 10.0 mi East 4.6 mph - N/A   Overcast
12:34 AM 28.4 °F 22.2 °F 17.6 °F 64% 30.05 in 10.0 mi East 5.8 mph - N/A   Overcast
12:55 AM 28.4 °F 23.3 °F 15.8 °F 59% 30.05 in 10.0 mi ESE 4.6 mph - N/A   Overcast
1:34 AM 28.4 °F 21.2 °F 15.8 °F 59% 30.04 in 10.0 mi East 6.9 mph - N/A   Overcast
1:55 AM 28.4 °F 19.7 °F 17.6 °F 64% 30.03 in 10.0 mi East 9.2 mph - N/A   Overcast
2:15 AM 28.4 °F 21.2 °F 17.6 °F 64% 30.03 in 10.0 mi East 6.9 mph - N/A   Overcast
2:34 AM 28.4 °F 22.2 °F 17.6 °F 64% 30.02 in 10.0 mi East 5.8 mph - N/A   Overcast
2:55 AM 28.4 °F 21.2 °F 17.6 °F 64% 30.01 in 10.0 mi East 6.9 mph - N/A   Overcast
3:15 AM 28.4 °F 20.4 °F 17.6 °F 64% 30.01 in 10.0 mi East 8.1 mph - N/A   Overcast
3:34 AM 28.4 °F 20.4 °F 17.6 °F 64% 30.00 in 10.0 mi East 8.1 mph - N/A   Overcast
3:55 AM 28.4 °F 20.4 °F 19.4 °F 69% 29.99 in 10.0 mi East 8.1 mph - N/A   Overcast
4:15 AM 28.4 °F 19.1 °F 19.4 °F 69% 29.98 in 10.0 mi East 10.4 mph - N/A   Overcast
4:35 AM 28.4 °F 20.4 °F 19.4 °F 69% 29.97 in 10.0 mi East 8.1 mph - N/A   Overcast
4:54 AM 28.4 °F 19.1 °F 19.4 °F 69% 29.97 in 10.0 mi East 10.4 mph - N/A   Overcast
5:15 AM 28.4 °F 19.1 °F 19.4 °F 69% 29.97 in 10.0 mi East 10.4 mph - N/A   Overcast
5:35 AM 28.4 °F 17.5 °F 19.4 °F 69% 29.97 in 10.0 mi East 13.8 mph 19.6 mph N/A   Overcast
5:54 AM 28.4 °F 18.0 °F 19.4 °F 69% 29.96 in 10.0 mi East 12.7 mph - N/A   Overcast
6:15 AM 28.4 °F 17.5 °F 19.4 °F 69% 29.96 in 10.0 mi East 13.8 mph - N/A   Overcast
6:35 AM 26.6 °F 15.2 °F 17.6 °F 69% 29.96 in 10.0 mi East 13.8 mph - N/A   Overcast
6:54 AM 26.6 °F 15.7 °F 17.6 °F 69% 29.95 in 10.0 mi East 12.7 mph - N/A   Overcast
7:15 AM 26.6 °F 15.7 °F 17.6 °F 69% 29.95 in 10.0 mi East 12.7 mph 18.4 mph N/A   Mostly Cloudy
7:55 AM 26.6 °F 14.3 °F 19.4 °F 74% 29.95 in 10.0 mi East 16.1 mph 19.6 mph N/A   Overcast
8:15 AM 26.6 °F 15.7 °F 19.4 °F 74% 29.94 in 10.0 mi East 12.7 mph - N/A   Overcast
8:34 AM 26.6 °F 15.2 °F 19.4 °F 74% 29.94 in 10.0 mi East 13.8 mph 18.4 mph N/A   Mostly Cloudy
8:55 AM 26.6 °F 14.3 °F 21.2 °F 80% 29.94 in 10.0 mi East 16.1 mph 19.6 mph N/A   Mostly Cloudy
9:14 AM 28.4 °F 18.5 °F 21.2 °F 74% 29.94 in 10.0 mi East 11.5 mph 18.4 mph N/A   Overcast
9:35 AM 28.4 °F 17.0 °F 21.2 °F 74% 29.93 in 10.0 mi East 15.0 mph 18.4 mph N/A   Mostly Cloudy
9:55 AM 26.6 °F 16.8 °F 21.2 °F 80% 29.92 in 10.0 mi East 10.4 mph - N/A   Overcast
10:14 AM 26.6 °F 14.3 °F 21.2 °F 80% 29.92 in 10.0 mi East 16.1 mph - N/A   Overcast
10:35 AM 26.6 °F 14.7 °F 21.2 °F 80% 29.92 in 10.0 mi East 15.0 mph - N/A   Overcast
10:54 AM 28.4 °F 17.0 °F 21.2 °F 74% 29.91 in 10.0 mi East 15.0 mph 19.6 mph N/A   Overcast
11:15 AM 28.4 °F 15.8 °F 21.2 °F 74% 29.91 in 10.0 mi East 18.4 mph - N/A   Overcast
11:35 AM 28.4 °F 18.5 °F 21.2 °F 74% 29.90 in 10.0 mi East 11.5 mph - N/A   Overcast
11:54 AM 28.4 °F 17.5 °F 21.2 °F 74% 29.89 in 10.0 mi ESE 13.8 mph 17.3 mph N/A   Mostly Cloudy
12:15 PM 28.4 °F 16.6 °F 21.2 °F 74% 29.88 in 10.0 mi East 16.1 mph - N/A   Mostly Cloudy
12:35 PM 30.2 °F 19.8 °F 21.2 °F 69% 29.86 in 10.0 mi East 13.8 mph 21.9 mph N/A   Scattered Clouds
12:54 PM 30.2 °F 17.8 °F 21.2 °F 69% 29.85 in 10.0 mi East 19.6 mph - N/A   Scattered Clouds
1:15 PM 30.2 °F 18.9 °F 21.2 °F 69% 29.84 in 10.0 mi East 16.1 mph 23.0 mph N/A   Mostly Cloudy
1:35 PM 30.2 °F 20.2 °F 21.2 °F 69% 29.83 in 10.0 mi East 12.7 mph - N/A   Mostly Cloudy
1:54 PM 30.2 °F 18.5 °F 21.2 °F 69% 29.81 in 10.0 mi East 17.3 mph - N/A Snow Light Snow
2:15 PM 30.2 °F 18.9 °F 21.2 °F 69% 29.80 in 7.0 mi East 16.1 mph 23.0 mph N/A Snow Light Snow
2:35 PM 30.2 °F 19.8 °F 21.2 °F 69% 29.80 in 5.0 mi East 13.8 mph - N/A Snow Light Snow
2:55 PM 30.2 °F 18.9 °F 21.2 °F 69% 29.79 in 2.5 mi East 16.1 mph 20.7 mph N/A Snow Light Snow
3:15 PM 30.2 °F 18.1 °F 21.2 °F 69% 29.78 in 2.5 mi East 18.4 mph - N/A Snow Light Snow
3:34 PM 30.2 °F 18.1 °F 21.2 °F 69% 29.76 in 2.5 mi East 18.4 mph - N/A Snow Light Snow
3:55 PM 30.2 °F 19.3 °F 21.2 °F 69% 29.76 in 7.0 mi ENE 15.0 mph - N/A Snow Light Snow
4:15 PM 30.2 °F 20.2 °F 19.4 °F 64% 29.75 in 7.0 mi East 12.7 mph 20.7 mph N/A Snow Light Snow
4:34 PM 30.2 °F 18.9 °F 19.4 °F 64% 29.74 in 10.0 mi ENE 16.1 mph 19.6 mph N/A   Mostly Cloudy
4:55 PM 30.2 °F 19.3 °F 19.4 °F 64% 29.75 in 10.0 mi ENE 15.0 mph 19.6 mph N/A   Mostly Cloudy
5:14 PM 30.2 °F 21.3 °F 19.4 °F 64% 29.75 in 10.0 mi ENE 10.4 mph 18.4 mph N/A   Overcast
5:35 PM 30.2 °F 18.9 °F 21.2 °F 69% 29.76 in 2.5 mi ENE 16.1 mph 19.6 mph N/A Snow Light Snow
5:55 PM 30.2 °F 20.8 °F 21.2 °F 69% 29.76 in 1.8 mi NE 11.5 mph 18.4 mph N/A Snow Light Snow
6:14 PM 30.2 °F 19.8 °F 21.2 °F 69% 29.76 in 1.5 mi ENE 13.8 mph 18.4 mph N/A Snow Light Snow
6:34 PM 28.4 °F 18.5 °F 24.8 °F 86% 29.76 in 1.2 mi ENE 11.5 mph 20.7 mph N/A Snow Light Snow
6:55 PM 28.4 °F 17.0 °F 26.6 °F 93% 29.77 in 0.8 mi NE 15.0 mph 19.6 mph N/A Snow Snow
7:15 PM 28.4 °F 17.0 °F 26.6 °F 93% 29.78 in 1.2 mi NE 15.0 mph 20.7 mph N/A Snow Light Snow
7:35 PM 28.4 °F 18.0 °F 26.6 °F 93% 29.77 in 1.0 mi NE 12.7 mph 20.7 mph N/A Snow Light Snow
7:54 PM 28.4 °F 19.1 °F 26.6 °F 93% 29.77 in 1.8 mi NE 10.4 mph 17.3 mph N/A Snow Light Snow
8:15 PM 28.4 °F 18.5 °F 26.6 °F 93% 29.76 in 1.5 mi NE 11.5 mph 19.6 mph N/A Snow Light Snow
8:35 PM 28.4 °F 18.5 °F 28.4 °F 100% 29.76 in 1.8 mi NE 11.5 mph - N/A Snow Light Snow
8:54 PM 28.4 °F 19.1 °F 28.4 °F 100% 29.76 in 1.5 mi NNE 10.4 mph - N/A Snow Light Snow
9:15 PM 28.4 °F 18.0 °F 28.4 °F 100% 29.77 in 1.5 mi NNE 12.7 mph - N/A Snow Light Snow
9:35 PM 28.4 °F 17.5 °F 26.6 °F 93% 29.77 in 2.0 mi NE 13.8 mph 21.9 mph N/A Snow Light Snow
9:54 PM 28.4 °F 16.6 °F 26.6 °F 93% 29.78 in 1.8 mi NNE 16.1 mph 20.7 mph N/A Snow Light Snow
10:15 PM 26.6 °F 14.3 °F 26.6 °F 100% 29.78 in 1.2 mi NNE 16.1 mph 26.5 mph N/A Snow Light Snow
10:34 PM 26.6 °F 14.3 °F 26.6 °F 100% 29.79 in 1.0 mi NNE 16.1 mph - N/A Snow Light Snow
10:55 PM 26.6 °F 14.3 °F 24.8 °F 93% 29.79 in 1.0 mi NNE 16.1 mph 21.9 mph N/A Snow Light Snow
11:15 PM 26.6 °F 14.3 °F 24.8 °F 93% 29.79 in 1.2 mi NNE 16.1 mph 23.0 mph N/A Snow Light Snow
11:34 PM 26.6 °F 13.8 °F 24.8 °F 93% 29.80 in 1.5 mi NNE 17.3 mph 24.2 mph N/A Snow Light Snow
11:55 PM 24.8 °F 11.5 °F 24.8 °F 100% 29.81 in 1.8 mi NNE 17.3 mph 23.0 mph N/A Snow Light Snow